Time,TemperatureF,DewpointF,PressureIn,WindDirection,WindDirectionDegrees,WindSpeedMPH,WindSpeedGustMPH,Humidity,HourlyPrecipIn,Conditions,Clouds,dailyrainin,SolarRadiationWatts/m^2,SoftwareType,DateUTC
2013-02-01 00:00:00,43.0,26.0,-100.00,West,276,1.0,3.0,51,0.00,,,0.00,0.000000,,2013-02-01 08:00:00,
2013-02-01 00:32:00,43.0,26.0,-100.00,West,276,1.0,3.0,51,0.00,,,0.00,0.000000,,2013-02-01 08:32:00,
2013-02-01 00:42:00,43.0,26.0,-100.00,West,276,1.0,3.0,51,0.00,,,0.00,0.000000,,2013-02-01 08:42:00,
2013-02-01 00:52:00,43.0,26.0,-100.00,West,276,1.0,3.0,51,0.00,,,0.00,0.000000,,2013-02-01 08:52:00,
2013-02-01 01:00:00,43.0,26.0,-100.00,WSW,252,3.0,4.0,51,0.00,,,0.00,0.000000,,2013-02-01 09:00:00,
2013-02-01 01:32:00,43.0,26.0,-100.00,WSW,252,3.0,4.0,51,0.00,,,0.00,0.000000,,2013-02-01 09:32:00,
2013-02-01 01:42:00,43.0,26.0,-100.00,WSW,252,3.0,4.0,51,0.00,,,0.00,0.000000,,2013-02-01 09:42:00,
2013-02-01 01:52:00,43.0,26.0,-100.00,WSW,252,3.0,4.0,51,0.00,,,0.00,0.000000,,2013-02-01 09:52:00,
2013-02-01 02:00:00,42.0,25.0,-100.00,WNW,294,0.0,5.0,50,0.00,,,0.00,0.000000,,2013-02-01 10:00:00,
2013-02-01 02:21:00,42.0,25.0,-100.00,WNW,294,0.0,5.0,50,0.00,,,0.00,0.000000,,2013-02-01 10:21:00,
2013-02-01 02:32:00,42.0,25.0,-100.00,WNW,294,0.0,5.0,50,0.00,,,0.00,0.000000,,2013-02-01 10:32:00,
2013-02-01 02:43:00,42.0,25.0,-100.00,WNW,294,0.0,5.0,50,0.00,,,0.00,0.000000,,2013-02-01 10:43:00,
2013-02-01 02:53:00,42.0,25.0,-100.00,WNW,294,0.0,5.0,50,0.00,,,0.00,0.000000,,2013-02-01 10:53:00,
2013-02-01 03:00:00,42.0,25.0,-100.00,WSW,253,3.0,6.0,50,0.00,,,0.00,0.000000,,2013-02-01 11:00:00,
2013-02-01 03:32:00,42.0,25.0,-100.00,WSW,253,3.0,6.0,50,0.00,,,0.00,0.000000,,2013-02-01 11:32:00,
2013-02-01 03:42:00,42.0,25.0,-100.00,WSW,253,3.0,6.0,50,0.00,,,0.00,0.000000,,2013-02-01 11:42:00,
2013-02-01 03:53:00,42.0,25.0,-100.00,WSW,253,3.0,6.0,50,0.00,,,0.00,0.000000,,2013-02-01 11:53:00,
2013-02-01 04:00:00,42.0,26.0,-100.00,WSW,254,2.0,4.0,52,0.00,,,0.00,0.000000,,2013-02-01 12:00:00,
2013-02-01 04:23:00,42.0,26.0,-100.00,WSW,254,2.0,4.0,52,0.00,,,0.00,0.000000,,2013-02-01 12:23:00,
2013-02-01 04:32:00,42.0,26.0,-100.00,WSW,254,2.0,4.0,52,0.00,,,0.00,0.000000,,2013-02-01 12:32:00,
2013-02-01 04:42:00,42.0,26.0,-100.00,WSW,254,2.0,4.0,52,0.00,,,0.00,0.000000,,2013-02-01 12:42:00,
2013-02-01 04:52:00,42.0,26.0,-100.00,WSW,254,2.0,4.0,52,0.00,,,0.00,0.000000,,2013-02-01 12:52:00,
2013-02-01 05:00:00,40.0,26.0,-100.00,NW,313,0.0,2.0,56,0.00,,,0.00,0.000000,,2013-02-01 13:00:00,
2013-02-01 05:33:00,40.0,26.0,-100.00,NW,313,0.0,2.0,56,0.00,,,0.00,0.000000,,2013-02-01 13:33:00,
2013-02-01 05:42:00,40.0,26.0,-100.00,NW,313,0.0,2.0,56,0.00,,,0.00,0.000000,,2013-02-01 13:42:00,
2013-02-01 05:53:00,40.0,26.0,-100.00,NW,313,0.0,2.0,56,0.00,,,0.00,0.000000,,2013-02-01 13:53:00,
2013-02-01 06:00:00,41.0,25.0,-100.00,WNW,296,0.0,3.0,52,0.00,,,0.00,0.000000,,2013-02-01 14:00:00,
2013-02-01 06:32:00,41.0,25.0,-100.00,WNW,296,0.0,3.0,52,0.00,,,0.00,0.000000,,2013-02-01 14:32:00,
2013-02-01 06:42:00,41.0,25.0,-100.00,WNW,296,0.0,3.0,52,0.00,,,0.00,0.000000,,2013-02-01 14:42:00,
2013-02-01 06:52:00,41.0,25.0,-100.00,WNW,296,0.0,3.0,52,0.00,,,0.00,0.000000,,2013-02-01 14:52:00,
2013-02-01 07:00:00,42.0,25.0,-100.00,West,265,2.0,4.0,50,0.00,,,0.00,1.000000,,2013-02-01 15:00:00,
2013-02-01 07:33:00,42.0,25.0,-100.00,West,265,2.0,4.0,50,0.00,,,0.00,1.000000,,2013-02-01 15:33:00,
2013-02-01 07:42:00,42.0,25.0,-100.00,West,265,2.0,4.0,50,0.00,,,0.00,1.000000,,2013-02-01 15:42:00,
2013-02-01 07:52:00,42.0,25.0,-100.00,West,265,2.0,4.0,50,0.00,,,0.00,1.000000,,2013-02-01 15:52:00,
2013-02-01 08:00:00,42.0,25.0,-100.00,East,101,0.0,5.0,50,0.00,,,0.00,17.000000,,2013-02-01 16:00:00,
2013-02-01 08:33:00,42.0,25.0,-100.00,East,101,0.0,5.0,50,0.00,,,0.00,17.000000,,2013-02-01 16:33:00,
2013-02-01 08:43:00,42.0,25.0,-100.00,East,101,0.0,5.0,50,0.00,,,0.00,17.000000,,2013-02-01 16:43:00,
2013-02-01 08:52:00,42.0,25.0,-100.00,East,101,0.0,5.0,50,0.00,,,0.00,17.000000,,2013-02-01 16:52:00,
2013-02-01 09:00:00,51.0,28.0,-100.00,NNE,28,1.0,4.0,40,0.00,,,0.00,157.000000,,2013-02-01 17:00:00,
2013-02-01 09:32:00,51.0,28.0,-100.00,NNE,28,1.0,4.0,40,0.00,,,0.00,157.000000,,2013-02-01 17:32:00,
2013-02-01 09:42:00,51.0,28.0,-100.00,NNE,28,1.0,4.0,40,0.00,,,0.00,157.000000,,2013-02-01 17:42:00,
2013-02-01 09:53:00,51.0,28.0,-100.00,NNE,28,1.0,4.0,40,0.00,,,0.00,157.000000,,2013-02-01 17:53:00,
2013-02-01 10:00:00,56.0,26.0,-100.00,NNE,23,1.0,5.0,31,0.00,,,0.00,523.000000,,2013-02-01 18:00:00,
2013-02-01 10:23:00,56.0,26.0,-100.00,NNE,23,1.0,5.0,31,0.00,,,0.00,523.000000,,2013-02-01 18:23:00,
2013-02-01 10:32:00,56.0,26.0,-100.00,NNE,23,1.0,5.0,31,0.00,,,0.00,523.000000,,2013-02-01 18:32:00,
2013-02-01 10:42:00,56.0,26.0,-100.00,NNE,23,1.0,5.0,31,0.00,,,0.00,523.000000,,2013-02-01 18:42:00,
2013-02-01 10:53:00,56.0,26.0,-100.00,NNE,23,1.0,5.0,31,0.00,,,0.00,523.000000,,2013-02-01 18:53:00,
2013-02-01 11:00:00,62.0,29.0,-100.00,ENE,77,1.0,6.0,29,-99.99,,,0.00,656.000000,,2013-02-01 19:00:00,
2013-02-01 11:32:00,62.0,29.0,-100.00,ENE,77,1.0,6.0,29,-99.99,,,0.00,656.000000,,2013-02-01 19:32:00,
2013-02-01 11:42:00,62.0,29.0,-100.00,ENE,77,1.0,6.0,29,-99.99,,,0.00,656.000000,,2013-02-01 19:42:00,
2013-02-01 11:52:00,62.0,29.0,-100.00,ENE,77,1.0,6.0,29,-99.99,,,0.00,656.000000,,2013-02-01 19:52:00,
2013-02-01 12:00:00,62.0,27.0,-100.00,ESE,105,3.0,9.0,26,0.00,,,0.00,732.000000,,2013-02-01 20:00:00,
2013-02-01 12:22:00,62.0,27.0,-100.00,ESE,105,3.0,9.0,26,0.00,,,0.00,732.000000,,2013-02-01 20:22:00,
2013-02-01 12:32:00,62.0,27.0,-100.00,ESE,105,3.0,9.0,26,0.00,,,0.00,732.000000,,2013-02-01 20:32:00,
2013-02-01 12:42:00,62.0,27.0,-100.00,ESE,105,3.0,9.0,26,0.00,,,0.00,732.000000,,2013-02-01 20:42:00,
2013-02-01 12:52:00,62.0,27.0,-100.00,ESE,105,3.0,9.0,26,0.00,,,0.00,732.000000,,2013-02-01 20:52:00,
2013-02-01 13:00:00,64.0,27.0,-100.00,SE,125,3.0,8.0,25,-99.99,,,0.00,757.000000,,2013-02-01 21:00:00,
2013-02-01 13:32:00,64.0,27.0,-100.00,SE,125,3.0,8.0,25,-99.99,,,0.00,757.000000,,2013-02-01 21:32:00,
2013-02-01 13:42:00,64.0,27.0,-100.00,SE,125,3.0,8.0,25,-99.99,,,0.00,757.000000,,2013-02-01 21:42:00,
2013-02-01 13:52:00,64.0,27.0,-100.00,SE,125,3.0,8.0,25,-99.99,,,0.00,757.000000,,2013-02-01 21:52:00,
2013-02-01 14:00:00,61.0,26.0,-100.00,NW,310,4.0,10.0,26,0.00,,,-99.99,692.000000,,2013-02-01 22:00:00,
2013-02-01 14:32:00,61.0,26.0,-100.00,NW,310,4.0,10.0,26,0.00,,,-99.99,692.000000,,2013-02-01 22:32:00,
2013-02-01 14:42:00,61.0,26.0,-100.00,NW,310,4.0,10.0,26,0.00,,,-99.99,692.000000,,2013-02-01 22:42:00,
2013-02-01 14:52:00,61.0,26.0,-100.00,NW,310,4.0,10.0,26,0.00,,,-99.99,692.000000,,2013-02-01 22:52:00,
2013-02-01 15:00:00,56.0,26.0,-100.00,ESE,122,6.0,14.0,31,0.00,,,0.00,511.000000,,2013-02-01 23:00:00,
2013-02-01 15:32:00,56.0,26.0,-100.00,ESE,122,6.0,14.0,31,0.00,,,0.00,511.000000,,2013-02-01 23:32:00,
2013-02-01 15:42:00,56.0,26.0,-100.00,ESE,122,6.0,14.0,31,0.00,,,0.00,511.000000,,2013-02-01 23:42:00,
2013-02-01 15:52:00,56.0,26.0,-100.00,ESE,122,6.0,14.0,31,0.00,,,0.00,511.000000,,2013-02-01 23:52:00,
2013-02-01 16:00:00,51.0,25.0,-100.00,NNW,329,4.0,12.0,36,0.00,,,0.00,266.000000,,2013-02-02 00:00:00,
2013-02-01 16:32:00,51.0,25.0,-100.00,NNW,329,4.0,12.0,36,0.00,,,0.00,266.000000,,2013-02-02 00:32:00,
2013-02-01 16:42:00,51.0,25.0,-100.00,NNW,329,4.0,12.0,36,0.00,,,0.00,266.000000,,2013-02-02 00:42:00,
2013-02-01 16:52:00,51.0,25.0,-100.00,NNW,329,4.0,12.0,36,0.00,,,0.00,266.000000,,2013-02-02 00:52:00,
2013-02-01 17:00:00,47.0,25.0,-100.00,SSE,149,3.0,9.0,41,0.00,,,0.00,91.000000,,2013-02-02 01:00:00,
2013-02-01 17:32:00,47.0,25.0,-100.00,SSE,149,3.0,9.0,41,0.00,,,0.00,91.000000,,2013-02-02 01:32:00,
2013-02-01 17:42:00,47.0,25.0,-100.00,SSE,149,3.0,9.0,41,0.00,,,0.00,91.000000,,2013-02-02 01:42:00,
2013-02-01 17:52:00,47.0,25.0,-100.00,SSE,149,3.0,9.0,41,0.00,,,0.00,91.000000,,2013-02-02 01:52:00,
2013-02-01 18:00:00,47.0,27.0,-100.00,SW,236,2.0,8.0,45,0.00,,,0.00,4.000000,,2013-02-02 02:00:00,
2013-02-01 18:32:00,47.0,27.0,-100.00,SW,236,2.0,8.0,45,0.00,,,0.00,4.000000,,2013-02-02 02:32:00,
2013-02-01 18:42:00,47.0,27.0,-100.00,SW,236,2.0,8.0,45,0.00,,,0.00,4.000000,,2013-02-02 02:42:00,
2013-02-01 18:52:00,47.0,27.0,-100.00,SW,236,2.0,8.0,45,0.00,,,0.00,4.000000,,2013-02-02 02:52:00,
2013-02-01 19:00:00,46.0,24.0,-100.00,SW,218,2.0,6.0,41,0.00,,,0.00,0.000000,,2013-02-02 03:00:00,
2013-02-01 19:22:00,46.0,24.0,-100.00,SW,218,2.0,6.0,41,0.00,,,0.00,0.000000,,2013-02-02 03:22:00,
2013-02-01 19:32:00,46.0,24.0,-100.00,SW,218,2.0,6.0,41,0.00,,,0.00,0.000000,,2013-02-02 03:32:00,
2013-02-01 19:42:00,46.0,24.0,-100.00,SW,218,2.0,6.0,41,0.00,,,0.00,0.000000,,2013-02-02 03:42:00,
2013-02-01 19:52:00,46.0,24.0,-100.00,SW,218,2.0,6.0,41,0.00,,,0.00,0.000000,,2013-02-02 03:52:00,
2013-02-01 20:00:00,46.0,24.0,-100.00,SSW,204,1.0,4.0,41,0.00,,,0.00,0.000000,,2013-02-02 04:00:00,
2013-02-01 20:32:00,46.0,24.0,-100.00,SSW,204,1.0,4.0,41,0.00,,,0.00,0.000000,,2013-02-02 04:32:00,
2013-02-01 20:42:00,46.0,24.0,-100.00,SSW,204,1.0,4.0,41,0.00,,,0.00,0.000000,,2013-02-02 04:42:00,
2013-02-01 20:52:00,46.0,24.0,-100.00,SSW,204,1.0,4.0,41,0.00,,,0.00,0.000000,,2013-02-02 04:52:00,
2013-02-01 21:00:00,47.0,24.0,-100.00,WNW,289,0.0,5.0,40,0.00,,,0.00,0.000000,,2013-02-02 05:00:00,
2013-02-01 21:33:00,47.0,24.0,-100.00,WNW,289,0.0,5.0,40,0.00,,,0.00,0.000000,,2013-02-02 05:33:00,
2013-02-01 21:42:00,47.0,24.0,-100.00,WNW,289,0.0,5.0,40,0.00,,,0.00,0.000000,,2013-02-02 05:42:00,
2013-02-01 21:52:00,47.0,24.0,-100.00,WNW,289,0.0,5.0,40,0.00,,,0.00,0.000000,,2013-02-02 05:52:00,
2013-02-01 22:00:00,46.0,23.0,-100.00,WSW,248,1.0,3.0,40,0.00,,,0.00,0.000000,,2013-02-02 06:00:00,
2013-02-01 22:22:00,46.0,23.0,-100.00,WSW,248,1.0,3.0,40,0.00,,,0.00,0.000000,,2013-02-02 06:22:00,
2013-02-01 22:32:00,46.0,23.0,-100.00,WSW,248,1.0,3.0,40,0.00,,,0.00,0.000000,,2013-02-02 06:32:00,
2013-02-01 22:42:00,46.0,23.0,-100.00,WSW,248,1.0,3.0,40,0.00,,,0.00,0.000000,,2013-02-02 06:42:00,
2013-02-01 22:52:00,46.0,23.0,-100.00,WSW,248,1.0,3.0,40,0.00,,,0.00,0.000000,,2013-02-02 06:52:00,
2013-02-01 23:00:00,47.0,25.0,-100.00,ENE,65,0.0,3.0,41,0.00,,,0.00,0.000000,,2013-02-02 07:00:00,
2013-02-01 23:21:00,47.0,25.0,-100.00,ENE,65,0.0,3.0,41,0.00,,,0.00,0.000000,,2013-02-02 07:21:00,
2013-02-01 23:32:00,47.0,25.0,-100.00,ENE,65,0.0,3.0,41,0.00,,,0.00,0.000000,,2013-02-02 07:32:00,
2013-02-01 23:42:00,47.0,25.0,-100.00,ENE,65,0.0,3.0,41,0.00,,,0.00,0.000000,,2013-02-02 07:42:00,
2013-02-01 23:51:00,47.0,25.0,-100.00,ENE,65,0.0,3.0,41,0.00,,,0.00,0.000000,,2013-02-02 07:51:00,